カタログに戻る

STARLINK-32228

運用中通信VLEO
NORAD 60445·PAYLOAD·🇺🇸 United States

打ち上げ Aug 12, 2024 から Cape Canaveral Space Force Station

Loading…

次のパス (今後24時間)

TLE

最新Source: CelesTrak SupGP

元期: Sep 14, 2026, 21:16 UTC

1 60445C 24144W   26257.88659722  .00037172  00000+0  10986-2 0  2575
2 60445  53.1591  53.7435 0001039  75.7800 178.8567 15.34363906    15

AllMySatでSTARLINK-32228をリアルタイム追跡

Download on the App Store